Starlink 31895

operational
NORAD ID: 59849 Int'l Des: 2024-097 Owner: SPXS Country: US Constellation: starlink
LEOCIRCULAR

About Starlink 31895

Description loading...

Live Position

Loading 3D Globe...

Upcoming Passes

Altitude History

Altitude vs Time

uPlot chart will show altitude changes over time

Two-Line Element Set

1 59849U 24097Q 25259.14360416 -.00003550 00000-0 -11962-3 0 9992
2 59849 43.0008 179.9821 0000653 272.3144 87.7633 15.27564653 75220
Epoch: Sep 16, 2025 • Age: 11 hours

Current Status

Altitude 486.1 km
Velocity 7.63 km/s
Sub-Earth Point 40.60°N, 26.43°E
Launch Date May 23, 2024
Age 1.3 years
Type internet

Technical Details

Classification Payload
Mass 730.00 kg
Dry Mass 700.00 kg
Total Mass 730.00 kg
Length 0.30 m
Diameter 4.10 m
Span 29.00 m
Shape Box + pan
Manufacturer SPXS
Bus Type Starlink V2M
Phase Status In Orbit
Owner/State SPXS/US

Large Constellations

Loading constellations...